SCP
0 0 0 0 0 0 0 0 0 0 0 0 0 0 0 0 0 0 0 0 0 0 0 0 0 0 0 0 0 0 0 0 0 0 0 0 0 0 0 0 0 0 0 0
0 0 0 0 0 0 0 0 0 -0 0 0 0 0 0 0 0 0 0 0 0 0 0 0 0 0 0 0 0 0 0 0 0 0 0 0 0 0 0 0 0 0 0 0
0 0 0 0 0 0 0 0 0 0 0 0 0 0 0 0 0 0 0 0 0 0 0 0 0 0 0 0 0 0 0 0 0 0 0 0 0 0 0 0 0 0 0 0
0 0 0 0 0 0 0 0 0 0 0 0 0 0 0 0 0 0 0 0 0 0 0 0 0 0 0 0 0 0 0 0 0 0 0 0 0 0 0 0 0 0 0 0
0 0 0 0 0 0 0 0 0 0 0 0 0 0 0 0 0 0 0 0 0 0 0 0 0 0 0 0 0 0 0 0 0 0 0 0 0 0 0 0 0 0 0 0
0 0 0 0 0 0 0 0 0 0 0 0 0 0 0 0 0 0 0 0 0 0 0 0 0 0 0 0 0 0 0 0 0 -0 0 0 0 0 0 0 0 0 0 0
0 0 0 0 0 0 0 0 0 0 0 0 0 0 0 0 0 0 0 0 0 0 0 0 0 0 0 0 0 0 0 0 0 -0 0 0 0 0 0 0 0 0 0 -0
0 0 0 0 0 0 0 0 0 0 0 0 0 0 0 0 0 0 0 0 0 0 0 0 0 0 0 0 0 0 0 0 0 0 0 0 0 0 0 0 0 0 0 -0
0 0 0 0 0 0 0 0 0 0 0 0 0 0 0 0 0 0 0 0 0 0 0 0 0 0 0 0 0 0 0 0 0 0 0 0 0 0 0 0 0 0 0 0
0 0 0 0 0 0 0 0 0 0 0 0 0 0 0 0 0 0 0 0 0 0 0 0 0 0 0 0 0 0 0 0 0 0 0 0 0 0 0 0 0 0 0 0
0 0 0 0 0 0 0 0 0 0 0 0 0 0 0 0 0 0 0 0 0 0 0 0 0 0 0 0 0 0 0 0 0 0 0 0 0 0 0 0 0 0 0 0
0 0 0 0 0 0 0 0 0 0 0 0 0 0 0 0 0 0 0 0 0 0 0 0 0 0 0 0 0 0 0 0 0 0 0 0 0 0 0 0 0 0 0 0
0 0 0 0 0 0 0 0 0 0 0 0 0 0 0 0 0 0 0 0 0 0 0 0 0 0 0 0 0 0 0 0 0 0 0 0 0 0 0 0 0 0 0 0
0 0 0 0 0 0 0 0 0 0 0 0 0 0 0 0 0 0 0 0 0 0 0 0 0 0 0 0 0 0 0 0 0 0 0 0 0 0 0 0 0 0 0 0
0 0 0 0 0 0 0 0 0 0 0 0 0 0 0 0 0 0 0 0 0 0 0 0 0 0 0 0 0 0 0 0 0 0 0 0 0 0 0 0 0 0 0 0
0 0 0 0 0 0 0 0 0 0 0 0 0 0 0 0 0 0 0 0 0 0 0 0 0 0 0 0 0 0 0 0 0 0 0 0 0 0 0 0 0 0 0 0
0 0 0 0 0 0 0 0 0 0 0 0 0 0 0 0 0 0 0 0 0 0 0 0 0 0 0 0 0 0 0 0 0 0 0 0 0 0 0 0 0 0 0 0
0 0 0 0 0 0 0 0 0 0 0 0 0 0 0 0 0 0 0 0 0 0 0 0 0 0 0 0 0 0 0 0 0 0 0 0 0 0 0 0 0 0 0 0
0 0 0 0 0 0 0 0 0 0 0 0 0 0 0 0 0 0 0 0 0 0 0 0 0 0 0 0 0 0 0 0 0 0 0 0 0 0 0 0 0 0 0 0
0 0 0 0 0 0 0 0 0 0 0 0 0 0 0 0 0 0 0 0 0 0 0 0 0 0 0 0 0 0 0 0 0 0 0 0 0 0 0 0 0 0 0 0
0 0 0 0 0 0 0 0 0 0 0 0 0 0 0 0 0 0 0 0 0 0 0 0 0 0 0 0 0 0 0 0 0 0 0 0 0 0 0 0 0 0 0 0
0 0 0 0 0 0 0 0 0 0 0 0 0 0 0 0 0 0 0 0 0 0 0 0 0 0 0 0 0 0 0 0 0 0 0 0 0 0 0 0 0 0 0 0
0 0 0 0 0 0 0 0 0 0 0 0 0 0 0 0 0 0 0 0 0 0 0 0 0 0 0 0 0 0 0 0 0 0 0 0 0 0 0 0 0 0 0 0
0 0 0 0 0 0 0 0 0 0 0 0 0 0 0 0 0 0 0 0 0 0 0 0 0 0 0 0 0 0 0 0 0 0 0 0 0 0 0 0 0 0 0 0
0 0 0 0 0 0 0 0 0 0 0 0 0 0 0 0 0 0 0 0 0 0 0 0 0 0 0 0 -0 -0 0 0 0 0 0 0 0 0 0 0 0 0 0 0
0 0 0 0 0 0 0 0 0 0 0 0 0 0 0 0 0 0 0 0 0 0 0 0 0 0 0 0 -0 -0 0 0 0 0 0 0 0 0 0 0 0 0 0 0
Wind_Speed
2 1 2 3 3 2 2 2 4 4 4 5 5 8 6 3 3 3 2 3 3 3 3 3 3 3 3 3 3 3 3 2 2 2 2 2 1 1 1 1 1 1 1 1
1 2 3 3 2 1 2 3 4 3 3 4 6 8 5 2 2 3 3 2 3 3 3 3 3 3 3 3 3 3 3 2 2 1 1 1 1 1 1 0 0 0 0 1
1 2 2 1 1 2 3 4 4 6 6 3 6 5 3 1 1 1 2 2 2 3 3 3 3 3 3 3 2 2 2 2 2 2 1 1 1 1 2 2 1 1 1 0
1 2 1 1 2 4 3 2 4 5 5 2 3 4 3 2 2 2 1 2 2 2 3 3 3 3 3 2 2 2 2 2 2 2 2 2 2 2 2 1 1 1 1 1
1 1 2 2 3 3 2 3 4 4 3 4 2 4 3 2 3 3 2 1 1 2 2 3 3 2 2 2 2 2 2 2 2 2 2 2 2 1 1 2 2 2 1 1
1 1 2 2 2 2 2 2 2 2 2 4 2 4 4 3 4 4 2 1 1 2 3 3 3 2 2 2 2 2 2 2 2 2 2 3 3 2 3 3 3 2 2 1
1 1 0 1 2 0 1 2 2 2 2 2 0 5 5 1 2 3 3 2 1 2 2 3 3 2 2 2 2 2 2 2 2 2 2 3 3 3 4 3 3 3 2 2
2 1 0 1 2 2 1 2 2 3 3 2 2 6 3 1 2 2 2 2 1 2 2 3 3 3 2 2 3 3 3 3 3 3 3 3 3 3 3 3 3 3 2 2
2 2 1 1 2 2 1 1 1 2 2 5 4 4 4 2 1 1 1 1 1 1 2 2 2 3 2 3 3 3 3 3 3 3 3 3 3 3 3 3 3 3 2 2
2 4 2 1 2 1 2 1 2 2 3 4 4 4 3 2 2 2 1 0 1 0 1 1 2 2 2 2 2 3 3 3 3 3 3 3 3 3 3 3 3 3 3 2
2 3 2 2 4 3 3 3 3 2 3 4 4 2 1 2 2 2 1 1 1 2 2 1 2 2 2 2 2 2 3 3 3 3 3 4 3 3 3 3 3 3 3 3
2 3 4 4 1 2 4 4 4 3 3 4 5 4 3 2 2 3 3 2 2 2 2 2 2 2 2 2 3 3 3 3 3 3 3 4 3 3 3 4 4 3 3 3
2 4 4 2 3 3 4 4 5 3 3 5 6 5 3 0 2 3 3 3 3 2 2 2 2 2 3 3 3 3 3 3 3 3 3 4 4 4 4 4 4 3 4 4
3 5 7 7 4 2 6 6 7 7 6 7 10 10 5 4 4 4 4 4 3 3 2 2 3 3 3 3 3 3 3 3 3 3 4 4 4 4 4 4 4 4 4 4
4 6 7 10 10 8 10 11 11 13 12 11 11 11 11 8 7 6 5 4 4 4 3 3 3 3 3 3 3 3 3 3 3 4 4 5 4 4 4 4 4 4 4 5
4 5 5 8 7 9 12 14 14 15 15 16 16 16 11 9 6 6 6 6 6 6 5 4 4 4 4 4 4 4 4 4 4 4 5 4 4 4 4 4 4 4 5 5
5 4 4 7 4 7 11 11 12 10 10 10 13 10 6 6 7 7 6 6 6 6 6 5 5 5 5 4 4 4 4 4 4 5 5 4 4 4 4 4 4 5 5 5
6 5 4 5 5 10 4 1 5 8 8 10 9 7 6 7 7 7 6 6 7 6 6 6 5 5 5 4 4 4 4 4 5 5 5 5 5 5 5 5 5 5 5 5
8 7 5 4 7 11 7 3 4 6 6 6 9 9 7 6 6 5 4 5 6 7 6 6 5 5 5 5 4 4 4 4 5 5 6 5 5 6 5 6 6 5 5 5
5 6 6 6 7 8 2 2 0 3 5 2 4 5 5 3 5 4 4 6 7 6 5 5 4 4 5 4 3 4 5 5 6 6 6 5 5 6 6 6 6 5 5 5
6 7 9 10 9 10 3 1 3 5 2 1 2 4 4 5 6 7 7 7 7 7 6 5 5 5 5 4 4 5 6 6 6 5 5 6 6 6 6 6 5 5 5 5
8 8 9 8 10 10 3 4 5 3 3 3 4 4 6 8 8 8 8 8 7 7 6 5 5 5 4 4 4 6 7 6 5 5 5 6 6 5 5 5 5 5 5 5
9 8 5 8 8 3 3 5 4 4 5 5 5 6 7 9 10 9 9 8 7 7 6 5 5 6 5 5 5 7 7 5 5 5 6 6 6 5 5 5 5 4 4 4
6 5 6 9 10 9 8 8 8 7 7 7 7 8 9 10 11 10 9 8 7 7 6 5 5 6 6 6 6 7 6 5 5 6 6 5 5 5 5 4 4 4 4 4
7 6 7 11 11 10 9 8 7 8 8 8 9 9 10 10 10 10 9 8 7 7 6 6 6 7 7 6 7 6 6 5 6 6 6 5 5 5 5 5 5 5 5 5
9 10 9 10 9 8 9 7 8 9 9 9 10 10 9 9 10 9 9 8 7 7 7 7 7 8 7 7 7 7 6 6 6 6 6 4 4 4 4 4 4 6 7 8
Wind_Direction
15 55 27 350 329 310 304 284 294 311 331 305 284 288 292 288 255 241 221 186 173 164 149 137 138 135 135 133 138 141 140 140 150 163 171 166 177 179 173 129 62 33 3 329
131 41 349 328 323 271 272 284 297 316 342 308 291 287 283 270 250 254 238 210 184 169 158 154 149 137 143 142 143 141 151 151 160 171 154 174 182 213 209 208 199 304 3 349
58 7 338 300 334 309 304 293 307 311 312 274 293 270 223 214 236 243 237 228 203 194 190 171 163 161 158 151 153 156 158 156 161 157 139 141 172 199 205 210 215 232 247 237
30 345 322 321 325 301 288 322 303 302 299 299 318 290 238 228 236 219 203 202 206 195 190 181 178 179 175 166 155 161 165 169 166 173 186 194 222 237 246 250 232 228 235 233
5 338 324 312 320 298 308 321 293 287 280 278 247 262 261 177 226 226 220 217 213 195 189 187 185 189 178 161 157 167 173 178 178 191 202 215 222 241 248 248 237 239 238 251
310 303 308 314 320 293 279 274 256 230 244 256 242 250 263 197 226 227 219 237 224 189 181 181 170 165 160 153 159 175 185 189 193 205 211 222 230 230 231 242 249 249 242 244
330 177 35 275 285 149 284 285 284 244 233 256 106 253 260 264 248 243 234 240 245 198 183 176 172 172 170 173 182 194 202 209 213 216 221 230 238 240 243 253 257 260 256 251
292 264 165 296 292 288 280 286 296 295 294 302 229 251 274 10 290 267 246 233 211 184 180 186 190 194 194 195 201 204 213 224 227 229 236 240 239 244 248 249 256 257 262 265
279 278 52 297 296 265 224 208 315 281 287 272 251 266 274 177 228 214 182 178 182 184 189 196 199 199 200 206 214 217 220 229 232 235 240 243 242 244 250 257 259 258 254 258
278 276 280 308 223 193 300 196 198 230 276 276 273 260 263 218 216 207 202 233 308 296 233 216 210 213 215 217 219 217 225 232 238 240 241 247 249 250 251 251 249 250 252 252
254 260 275 241 226 228 184 200 225 236 268 278 287 279 30 251 230 228 246 276 300 296 270 247 233 229 230 224 218 216 226 233 240 245 248 249 252 254 252 249 251 252 248 245
222 258 265 252 262 301 250 241 219 244 240 243 274 282 76 266 261 252 256 270 290 284 268 253 238 230 232 232 228 227 233 239 246 250 252 253 255 253 253 255 255 254 253 249
197 240 276 227 184 191 232 228 226 249 250 228 241 258 101 296 269 257 260 272 279 277 264 250 239 236 237 240 240 240 243 248 251 251 251 252 249 247 250 255 259 255 252 248
225 239 244 270 302 263 252 242 223 219 232 241 240 264 273 280 285 282 275 272 269 266 262 261 259 249 245 246 247 248 250 251 250 248 248 249 250 250 253 255 256 256 253 247
220 251 251 265 272 268 262 257 238 229 237 248 260 264 277 289 285 283 274 269 267 266 266 264 264 259 251 253 254 255 253 250 246 246 248 253 257 257 257 255 255 255 253 250
224 253 267 270 261 261 264 257 247 242 243 249 264 273 281 292 286 275 268 264 263 263 263 265 264 263 259 257 256 255 252 248 245 248 252 257 258 255 253 254 254 253 253 250
214 224 253 269 285 283 261 244 228 227 227 231 245 261 286 285 281 279 276 265 262 265 267 264 264 265 267 264 256 252 249 245 245 250 255 254 253 253 253 254 252 252 255 252
214 213 243 276 278 249 258 124 218 229 243 232 248 271 281 286 296 286 275 272 272 272 272 269 267 266 269 267 259 252 245 240 242 249 253 254 252 255 257 253 252 254 255 254
218 215 226 241 259 271 272 225 203 219 253 234 244 265 281 298 294 275 280 280 280 277 276 274 269 266 267 262 253 247 245 243 244 249 252 253 252 254 255 255 257 258 257 257
201 222 229 226 247 256 272 93 209 224 245 215 237 268 285 291 284 302 328 303 291 286 281 275 272 268 263 259 246 243 248 249 250 254 259 259 254 252 253 256 260 259 257 260
179 202 220 230 243 264 285 124 166 225 288 13 270 278 275 272 287 306 307 301 295 294 289 282 272 266 265 260 247 250 254 255 259 262 261 260 256 253 255 258 258 256 255 257
195 196 207 211 228 247 149 156 206 277 333 290 281 281 278 281 290 292 293 293 293 293 289 283 276 274 272 257 246 253 259 266 266 259 257 258 257 255 251 252 254 251 249 252
219 217 213 213 234 287 192 227 256 271 270 273 276 277 278 283 286 288 289 287 285 284 283 282 279 278 274 261 250 256 265 267 262 258 258 260 259 255 250 247 248 247 243 247
232 229 238 252 260 266 265 263 263 260 270 280 282 282 281 283 285 285 283 282 282 280 278 278 276 273 273 269 261 262 266 261 255 257 261 260 258 257 252 246 242 241 240 245
238 205 231 253 268 281 270 256 269 280 279 279 281 282 279 279 280 282 281 278 276 275 274 270 266 268 274 276 271 267 262 254 253 257 258 256 253 252 252 247 244 245 245 244
223 219 230 255 264 266 280 286 285 279 278 283 288 288 283 276 277 279 276 275 273 273 273 269 265 266 270 272 272 269 259 248 248 252 253 250 247 247 247 251 256 245 249 255